Вернуться в каталог

STARLINK-3156

АктивенСвязьVLEO
NORAD 49458·PAYLOAD·🇺🇸 United States

Запущен Nov 13, 2021 с Cape Canaveral Space Force Station

Loading…

Ближайшие Пролёты (ближайшие 24 часа)

TLE

СвежийSource: CelesTrak SupGP

Эпоха: Sep 15, 2026, 02:08 UTC

1 49458C 21104BC  26258.08937500 -.00018754  00000+0 -56912-3 0  2583
2 49458  53.1573  77.0991 0001171  85.0360 116.1413 15.33555358    12

Отслеживайте STARLINK-3156 в реальном времени с AllMySat

Download on the App Store